Time,TemperatureF,DewpointF,PressureIn,WindDirection,WindDirectionDegrees,WindSpeedMPH,WindSpeedGustMPH,Humidity,HourlyPrecipIn,Conditions,Clouds,dailyrainin,SoftwareType,DateUTC
2013-11-19 00:23:00,35.0,26.0,30.20,NNW,333,6.0,12.0,68,0.00,,,0.00,,2013-11-19 05:23:00,
2013-11-19 00:43:00,35.0,26.0,30.20,NNW,333,6.0,14.0,68,0.00,,,0.00,,2013-11-19 05:43:00,
2013-11-19 00:53:00,35.0,26.0,30.20,NNW,333,6.0,14.0,68,0.00,,,0.00,,2013-11-19 05:53:00,
2013-11-19 01:22:00,35.0,26.0,30.22,NNW,329,7.0,12.0,68,0.00,,,0.00,,2013-11-19 06:22:00,
2013-11-19 01:52:00,35.0,26.0,30.22,NW,322,3.0,12.0,70,0.00,,,0.00,,2013-11-19 06:52:00,
2013-11-19 02:12:00,35.0,26.0,30.22,NW,321,6.0,12.0,69,0.00,,,0.00,,2013-11-19 07:12:00,
2013-11-19 02:22:00,35.0,26.0,30.22,NW,321,6.0,12.0,69,0.00,,,0.00,,2013-11-19 07:22:00,
2013-11-19 02:42:00,34.0,25.0,30.23,NW,321,4.0,7.0,70,0.00,,,0.00,,2013-11-19 07:42:00,
2013-11-19 02:52:00,34.0,25.0,30.23,NW,321,4.0,7.0,70,0.00,,,0.00,,2013-11-19 07:52:00,
2013-11-19 03:22:00,34.0,25.0,30.25,NNW,327,1.0,9.0,70,0.00,,,0.00,,2013-11-19 08:22:00,
2013-11-19 03:42:00,34.0,25.0,30.25,NW,322,4.0,8.0,70,0.00,,,0.00,,2013-11-19 08:42:00,
2013-11-19 03:52:00,34.0,25.0,30.25,NW,322,4.0,8.0,70,0.00,,,0.00,,2013-11-19 08:52:00,
2013-11-19 04:11:00,34.0,26.0,30.26,NNW,334,2.0,6.0,71,0.00,,,0.00,,2013-11-19 09:11:00,
2013-11-19 04:22:00,34.0,26.0,30.26,NNW,334,2.0,6.0,71,0.00,,,0.00,,2013-11-19 09:22:00,
2013-11-19 04:43:00,34.0,25.0,30.27,NW,315,1.0,6.0,70,0.00,,,0.00,,2013-11-19 09:43:00,
2013-11-19 04:53:00,34.0,25.0,30.27,NW,315,1.0,6.0,70,0.00,,,0.00,,2013-11-19 09:53:00,
2013-11-19 05:13:00,34.0,26.0,30.29,NW,313,2.0,5.0,71,0.00,,,0.00,,2013-11-19 10:13:00,
2013-11-19 05:23:00,34.0,26.0,30.29,NW,313,2.0,5.0,71,0.00,,,0.00,,2013-11-19 10:23:00,
2013-11-19 05:43:00,34.0,26.0,30.30,NNW,334,1.0,5.0,72,0.00,,,0.00,,2013-11-19 10:43:00,
2013-11-19 05:53:00,34.0,26.0,30.30,NNW,334,1.0,5.0,72,0.00,,,0.00,,2013-11-19 10:53:00,
2013-11-19 06:12:00,34.0,26.0,30.31,NNW,336,1.0,8.0,71,0.00,,,0.00,,2013-11-19 11:12:00,
2013-11-19 06:23:00,34.0,26.0,30.31,NNW,336,1.0,8.0,71,0.00,,,0.00,,2013-11-19 11:23:00,
2013-11-19 06:42:00,33.0,25.0,30.31,NNW,336,1.0,3.0,73,0.00,,,0.00,,2013-11-19 11:42:00,
2013-11-19 06:52:00,33.0,25.0,30.31,NNW,336,1.0,3.0,73,0.00,,,0.00,,2013-11-19 11:52:00,
2013-11-19 07:12:00,31.0,24.0,30.32,NNW,336,0.0,0.0,76,0.00,,,0.00,,2013-11-19 12:12:00,
2013-11-19 07:22:00,31.0,24.0,30.32,NNW,336,0.0,0.0,76,0.00,,,0.00,,2013-11-19 12:22:00,
2013-11-19 07:42:00,30.0,24.0,30.34,NNW,336,0.0,0.0,79,0.00,,,0.00,,2013-11-19 12:42:00,
2013-11-19 07:52:00,30.0,24.0,30.34,NNW,336,0.0,0.0,79,0.00,,,0.00,,2013-11-19 12:52:00,
2013-11-19 08:11:00,29.0,24.0,30.35,NNW,336,0.0,0.0,81,0.00,,,0.00,,2013-11-19 13:11:00,
2013-11-19 08:21:00,29.0,24.0,30.35,NNW,336,0.0,0.0,81,0.00,,,0.00,,2013-11-19 13:21:00,
2013-11-19 08:42:00,28.0,24.0,30.35,NNW,336,0.0,0.0,84,0.00,,,0.00,,2013-11-19 13:42:00,
2013-11-19 08:52:00,28.0,24.0,30.35,NNW,336,0.0,0.0,84,0.00,,,0.00,,2013-11-19 13:52:00,
2013-11-19 09:11:00,30.0,25.0,30.37,NNW,336,0.0,0.0,82,0.00,,,0.00,,2013-11-19 14:11:00,
2013-11-19 09:22:00,30.0,25.0,30.37,NNW,336,0.0,0.0,82,0.00,,,0.00,,2013-11-19 14:22:00,
2013-11-19 09:42:00,33.0,26.0,30.37,NNW,336,0.0,1.0,74,0.00,,,0.00,,2013-11-19 14:42:00,
2013-11-19 09:52:00,33.0,26.0,30.37,NNW,336,0.0,1.0,74,0.00,,,0.00,,2013-11-19 14:52:00,
2013-11-19 10:11:00,34.0,25.0,30.38,NNW,343,3.0,6.0,69,0.00,,,0.00,,2013-11-19 15:11:00,
2013-11-19 10:22:00,34.0,25.0,30.38,NNW,343,3.0,6.0,69,0.00,,,0.00,,2013-11-19 15:22:00,
2013-11-19 10:43:00,36.0,26.0,30.39,NNE,15,1.0,3.0,66,0.00,,,0.00,,2013-11-19 15:43:00,
2013-11-19 10:54:00,36.0,26.0,30.39,NNE,15,1.0,3.0,66,0.00,,,0.00,,2013-11-19 15:54:00,
2013-11-19 11:13:00,36.0,24.0,30.40,North,354,1.0,6.0,62,0.00,,,0.00,,2013-11-19 16:13:00,
2013-11-19 11:23:00,36.0,24.0,30.40,North,354,1.0,6.0,62,0.00,,,0.00,,2013-11-19 16:23:00,
2013-11-19 11:43:00,36.0,24.0,30.40,NNE,31,1.0,5.0,62,0.00,,,0.00,,2013-11-19 16:43:00,
2013-11-19 11:53:00,36.0,24.0,30.40,NNE,31,1.0,5.0,62,0.00,,,0.00,,2013-11-19 16:53:00,
2013-11-19 12:12:00,37.0,26.0,30.39,West,266,2.0,6.0,63,0.00,,,0.00,,2013-11-19 17:12:00,
2013-11-19 12:23:00,37.0,26.0,30.39,West,266,2.0,6.0,63,0.00,,,0.00,,2013-11-19 17:23:00,
2013-11-19 12:43:00,38.0,25.0,30.38,NW,315,1.0,6.0,60,0.00,,,0.00,,2013-11-19 17:43:00,
2013-11-19 12:52:00,38.0,25.0,30.38,NW,315,1.0,6.0,60,0.00,,,0.00,,2013-11-19 17:52:00,
2013-11-19 13:12:00,39.0,25.0,30.37,East,95,0.0,3.0,58,0.00,,,0.00,,2013-11-19 18:12:00,
2013-11-19 13:23:00,39.0,25.0,30.37,East,95,0.0,3.0,58,0.00,,,0.00,,2013-11-19 18:23:00,
2013-11-19 13:42:00,40.0,25.0,30.36,NNE,16,0.0,2.0,55,0.00,,,0.00,,2013-11-19 18:42:00,
2013-11-19 13:52:00,40.0,25.0,30.36,NNE,16,0.0,2.0,55,0.00,,,0.00,,2013-11-19 18:52:00,
2013-11-19 14:11:00,40.0,25.0,30.36,North,4,1.0,8.0,54,0.00,,,0.00,,2013-11-19 19:11:00,
2013-11-19 14:21:00,40.0,25.0,30.36,North,4,1.0,8.0,54,0.00,,,0.00,,2013-11-19 19:21:00,
2013-11-19 14:42:00,41.0,26.0,30.35,North,354,1.0,3.0,54,0.00,,,0.00,,2013-11-19 19:42:00,
2013-11-19 14:52:00,41.0,26.0,30.35,North,354,1.0,3.0,54,0.00,,,0.00,,2013-11-19 19:52:00,
2013-11-19 15:12:00,42.0,27.0,30.35,NNW,329,1.0,5.0,54,0.00,,,0.00,,2013-11-19 20:12:00,
2013-11-19 15:22:00,42.0,27.0,30.35,NNW,329,1.0,5.0,54,0.00,,,0.00,,2013-11-19 20:22:00,
2013-11-19 15:42:00,42.0,24.0,30.35,ENE,68,1.0,2.0,49,0.00,,,0.00,,2013-11-19 20:42:00,
2013-11-19 15:52:00,42.0,24.0,30.35,ENE,68,1.0,2.0,49,0.00,,,0.00,,2013-11-19 20:52:00,
2013-11-19 16:11:00,42.0,25.0,30.35,ESE,109,2.0,6.0,50,0.00,,,0.00,,2013-11-19 21:11:00,
2013-11-19 16:22:00,42.0,25.0,30.35,ESE,109,2.0,6.0,50,0.00,,,0.00,,2013-11-19 21:22:00,
2013-11-19 16:43:00,42.0,24.0,30.36,ESE,110,0.0,2.0,49,0.00,,,0.00,,2013-11-19 21:43:00,
2013-11-19 16:54:00,42.0,24.0,30.36,ESE,110,0.0,2.0,49,0.00,,,0.00,,2013-11-19 21:54:00,
2013-11-19 17:13:00,42.0,24.0,30.36,ESE,110,0.0,2.0,48,0.00,,,0.00,,2013-11-19 22:13:00,
2013-11-19 17:23:00,42.0,24.0,30.36,ESE,110,0.0,2.0,48,0.00,,,0.00,,2013-11-19 22:23:00,
2013-11-19 17:43:00,40.0,24.0,30.36,ESE,110,0.0,0.0,53,0.00,,,0.00,,2013-11-19 22:43:00,
2013-11-19 17:53:00,40.0,24.0,30.36,ESE,110,0.0,0.0,53,0.00,,,0.00,,2013-11-19 22:53:00,
2013-11-19 18:12:00,38.0,25.0,30.37,ESE,110,0.0,0.0,60,0.00,,,0.00,,2013-11-19 23:12:00,
2013-11-19 18:22:00,38.0,25.0,30.37,ESE,110,0.0,0.0,60,0.00,,,0.00,,2013-11-19 23:22:00,
2013-11-19 18:43:00,35.0,25.0,30.37,ESE,110,0.0,0.0,66,0.00,,,0.00,,2013-11-19 23:43:00,
2013-11-19 18:52:00,35.0,25.0,30.37,ESE,110,0.0,0.0,66,0.00,,,0.00,,2013-11-19 23:52:00,
2013-11-19 19:11:00,33.0,25.0,30.37,ESE,110,0.0,0.0,71,0.00,,,0.00,,2013-11-20 00:11:00,
2013-11-19 19:22:00,33.0,25.0,30.37,ESE,110,0.0,0.0,71,0.00,,,0.00,,2013-11-20 00:22:00,
2013-11-19 19:42:00,33.0,25.0,30.38,ESE,110,0.0,2.0,73,0.00,,,0.00,,2013-11-20 00:42:00,
2013-11-19 19:52:00,33.0,25.0,30.38,ESE,110,0.0,2.0,73,0.00,,,0.00,,2013-11-20 00:52:00,
2013-11-19 20:11:00,35.0,25.0,30.38,SE,136,0.0,2.0,67,0.00,,,0.00,,2013-11-20 01:11:00,
2013-11-19 20:22:00,35.0,25.0,30.38,SE,136,0.0,2.0,67,0.00,,,0.00,,2013-11-20 01:22:00,
2013-11-19 20:42:00,33.0,25.0,30.38,SE,136,0.0,1.0,72,0.00,,,0.00,,2013-11-20 01:42:00,
2013-11-19 20:52:00,33.0,25.0,30.38,SE,136,0.0,1.0,72,0.00,,,0.00,,2013-11-20 01:52:00,
2013-11-19 21:11:00,33.0,25.0,30.37,SE,136,0.0,2.0,73,0.00,,,0.00,,2013-11-20 02:11:00,
2013-11-19 21:22:00,33.0,25.0,30.37,SE,136,0.0,2.0,73,0.00,,,0.00,,2013-11-20 02:22:00,
2013-11-19 21:42:00,34.0,25.0,30.37,SE,131,1.0,2.0,70,0.00,,,0.00,,2013-11-20 02:42:00,
2013-11-19 21:53:00,34.0,25.0,30.37,SE,131,1.0,2.0,70,0.00,,,0.00,,2013-11-20 02:53:00,
2013-11-19 22:11:00,33.0,25.0,30.37,SE,128,1.0,3.0,71,0.00,,,0.00,,2013-11-20 03:11:00,
2013-11-19 22:22:00,33.0,25.0,30.37,SE,128,1.0,3.0,71,0.00,,,0.00,,2013-11-20 03:22:00,
2013-11-19 22:44:00,33.0,25.0,30.37,ESE,108,1.0,3.0,71,0.00,,,0.00,,2013-11-20 03:44:00,
2013-11-19 22:54:00,33.0,25.0,30.37,ESE,108,1.0,3.0,71,0.00,,,0.00,,2013-11-20 03:54:00,
2013-11-19 23:13:00,33.0,25.0,30.37,ESE,117,1.0,3.0,71,0.00,,,0.00,,2013-11-20 04:13:00,
2013-11-19 23:23:00,33.0,25.0,30.37,ESE,117,1.0,3.0,71,0.00,,,0.00,,2013-11-20 04:23:00,
2013-11-19 23:43:00,33.0,25.0,30.37,ESE,114,1.0,3.0,72,0.00,,,0.00,,2013-11-20 04:43:00,
2013-11-19 23:53:00,33.0,25.0,30.37,ESE,114,1.0,3.0,72,0.00,,,0.00,,2013-11-20 04:53:00,